User: anonymous
Location: Unspecified
(0.0000°N, 0.0000°E)
Time: 00:24:16
(UTC+00:00)
Language:

METEOR-M - Orbit

View from above orbital plane
View from above orbital plane
View from above satellite
View from above satellite

Ground track
Ground track

The orbit data is extracted from the following two-line orbital elements,

1 35865U 09049A   14213.68255890 -.00000043  00000-0 -38237-7 0  7653
2 35865 098.5459 259.7086 0002358 346.8894 013.2214 14.21925960252805
Epoch (UTC): 01 August 2014 16:22:53
Eccentricity: 0.0002358
inclination: 98.5459°
perigee height: 817 km
apogee height: 820 km
right ascension of ascending node: 259.7086°
argument of perigee: 346.8894°
revolutions per day: 14.21925960
mean anomaly at epoch: 13.2214°
orbit number at epoch: 25280

The dashed part of the orbit path shows where the satellite is in the earth's shadow,  

DLR